EW9227 Weather Reports


Display with metric or nautical units.
time (UTC)temp
F
wind
direction
speed
MPH
gust
MPH
rain 1hr
in
rain 24hr
in
rain mn
in
humidity
%
barometer
mb
20260506232017 59 290 4.0 8.0 0.00 0.00 0.00 81 1018.6
20260506231546 59 280 4.0 8.0 0.00 0.00 0.00 81 1018.5
20260506231020 59 273 2.0 8.0 0.00 0.00 0.00 81 1018.6
20260506230518 59 278 4.0 9.0 0.00 0.00 0.00 81 1018.7
20260506230103 59 296 2.0 10.0 0.00 0.00 0.00 82 1018.6
20260506225518 59 287 4.0 10.0 0.00 0.00 0.00 81 1018.8
20260506225018 59 268 4.0 7.0 0.00 0.00 0.00 80 1018.8
20260506224541 60 306 2.0 7.0 0.00 0.00 0.00 80 1018.9
20260506224017 59 298 1.0 8.0 0.00 0.00 0.00 81 1019.0
20260506223518 59 0 3.0 8.0 0.00 0.00 0.00 81 1019.0
20260506223040 60 280 3.0 8.0 0.00 0.00 0.00 80 1019.1
20260506222518 60 281 0.0 8.0 0.00 0.00 0.00 80 1018.9
20260506222023 59 302 2.0 8.0 0.00 0.00 0.00 81 1019.2
20260506221542 60 301 1.0 8.0 0.00 0.00 0.00 81 1019.2
20260506221017 60 319 4.0 9.0 0.00 0.00 0.00 80 1019.3
20260506220517 60 0 2.0 9.0 0.00 0.00 0.00 80 1019.3
20260506220048 60 294 3.0 9.0 0.00 0.00 0.00 79 1019.5
20260506215521 60 305 3.0 7.0 0.00 0.00 0.00 80 1019.6
20260506215020 61 359 1.0 8.0 0.00 0.00 0.00 79 1019.5
20260506214539 60 281 5.0 8.0 0.00 0.00 0.00 79 1019.6
20260506214017 61 309 2.0 8.0 0.00 0.00 0.00 80 1019.6
20260506213520 62 283 1.0 7.0 0.00 0.00 0.00 77 1019.6
20260506213055 62 0 0.0 7.0 0.00 0.00 0.00 78 1019.7
20260506212517 61 283 2.0 7.0 0.00 0.00 0.00 78 1019.7
20260506212025 62 311 0.0 6.0 0.00 0.00 0.00 77 1019.6
20260506211542 61 269 2.0 6.0 0.00 0.00 0.00 78 1019.7
20260506211018 62 274 0.0 6.0 0.00 0.00 0.00 78 1019.7
20260506210520 62 279 0.0 6.0 0.00 0.00 0.00 78 1019.7
20260506210052 61 0 2.0 6.0 0.00 0.00 0.00 79 1019.7
20260506205517 61 281 3.0 6.0 0.00 0.00 0.00 78 1019.7
20260506205018 62 262 1.0 5.0 0.00 0.00 0.00 77 1019.8
20260506204540 62 0 1.0 5.0 0.00 0.00 0.00 77 1019.7
20260506204020 63 0 0.0 4.0 0.00 0.00 0.00 76 1019.9
20260506203520 63 0 0.0 4.0 0.00 0.00 0.00 77 1019.8
20260506203037 62 0 0.0 4.0 0.00 0.00 0.00 77 1019.8
20260506202517 62 271 1.0 5.0 0.00 0.00 0.00 77 1019.9
20260506202019 62 0 1.0 5.0 0.00 0.00 0.00 77 1020.0
20260506201544 62 0 0.0 4.0 0.00 0.00 0.00 77 1020.0
20260506201018 62 0 0.0 4.0 0.00 0.00 0.00 77 1020.2
20260506200520 62 0 0.0 3.0 0.00 0.00 0.00 77 1020.0
20260506200042 62 0 0.0 3.0 0.00 0.00 0.00 76 1020.2
20260506195518 62 328 0.0 4.0 0.00 0.00 0.00 77 1020.2
20260506195020 62 0 1.0 4.0 0.00 0.00 0.00 76 1020.3
20260506194541 62 285 0.0 3.0 0.00 0.00 0.00 75 1020.3
20260506194022 62 0 0.0 3.0 0.00 0.00 0.00 76 1020.4
20260506193518 62 0 0.0 3.0 0.00 0.00 0.00 76 1020.3
20260506193041 62 0 0.0 2.0 0.00 0.00 0.00 75 1020.4
20260506192518 62 0 0.0 2.0 0.00 0.00 0.00 75 1020.5
20260506192021 62 0 0.0 0.0 0.00 0.00 0.00 76 1020.3
20260506191537 62 0 0.0 0.0 0.00 0.00 0.00 76 1020.5
20260506191018 62 0 0.0 0.0 0.00 0.00 0.00 77 1020.5
20260506190518 62 0 0.0 0.0 0.00 0.00 0.00 76 1020.5
20260506190038 62 0 0.0 0.0 0.00 0.00 0.00 76 1020.5
20260506185519 61 0 0.0 0.0 0.00 0.00 0.00 77 1020.6
20260506185020 61 0 0.0 0.0 0.00 0.00 0.00 77 1020.4
20260506184541 61 0 0.0 0.0 0.00 0.00 0.00 77 1020.5
20260506184017 61 0 0.0 0.0 0.00 0.00 0.00 77 1020.6
20260506183520 61 0 0.0 1.0 0.00 0.00 0.00 78 1020.5
20260506183041 61 0 0.0 1.0 0.00 0.00 0.00 77 1020.4
20260506182518 61 0 0.0 0.0 0.00 0.00 0.00 78 1020.5
20260506182020 60 0 0.0 0.0 0.00 0.00 0.00 79 1020.5
20260506181542 60 0 0.0 1.0 0.00 0.00 0.00 79 1020.6
20260506181018 60 0 0.0 1.0 0.00 0.00 0.00 78 1020.5
20260506180518 60 0 0.0 1.0 0.00 0.00 0.00 78 1020.4
20260506180041 61 0 0.0 1.0 0.00 0.00 0.00 77 1020.4
20260506175517 60 0 0.0 1.0 0.00 0.00 0.00 77 1020.3
20260506175017 61 0 0.0 0.0 0.00 0.00 0.00 76 1020.4
20260506174537 61 0 0.0 0.0 0.00 0.00 0.00 76 1020.3
20260506174018 61 0 0.0 0.0 0.00 0.00 0.00 76 1020.3
20260506173520 60 0 0.0 0.0 0.00 0.00 0.00 79 1020.4
20260506173044 59 0 0.0 0.0 0.00 0.00 0.00 78 1020.4
20260506172517 59 0 0.0 0.0 0.00 0.00 0.00 80 1020.4
20260506172018 59 0 0.0 0.0 0.00 0.00 0.00 79 1020.5
20260506171548 58 0 0.0 0.0 0.00 0.00 0.00 79 1020.5
20260506171017 59 0 0.0 0.0 0.00 0.00 0.00 79 1020.6
20260506170520 59 0 0.0 0.0 0.00 0.00 0.00 79 1020.6
20260506170047 59 0 0.0 0.0 0.00 0.00 0.00 79 1020.6
20260506165517 59 0 0.0 0.0 0.00 0.00 0.00 79 1020.5
20260506165017 59 0 0.0 0.0 0.00 0.00 0.00 79 1020.5
20260506164544 59 0 0.0 0.0 0.00 0.00 0.00 79 1020.4
20260506164019 58 0 0.0 0.0 0.00 0.00 0.00 79 1020.5
20260506163517 58 0 0.0 0.0 0.00 0.00 0.00 79 1020.5
20260506163037 58 0 0.0 0.0 0.00 0.00 0.00 80 1020.4
20260506162519 58 0 0.0 0.0 0.00 0.00 0.00 80 1020.5
20260506162018 58 0 0.0 0.0 0.00 0.00 0.00 80 1020.4
20260506161542 57 0 0.0 0.0 0.00 0.00 0.00 81 1020.6
20260506161017 57 0 0.0 0.0 0.00 0.00 0.00 80 1020.5
20260506160517 57 0 0.0 0.0 0.00 0.00 0.00 81 1020.5
20260506160044 57 0 0.0 0.0 0.00 0.00 0.00 81 1020.5
20260506155518 57 0 0.0 0.0 0.00 0.00 0.00 81 1020.5
20260506155019 56 0 0.0 0.0 0.00 0.00 0.00 82 1020.5
20260506154538 56 0 0.0 0.0 0.00 0.00 0.00 82 1020.6
20260506154017 56 0 0.0 0.0 0.00 0.00 0.00 82 1020.7
20260506153517 56 0 0.0 0.0 0.00 0.00 0.00 82 1020.5
20260506153043 56 0 0.0 0.0 0.00 0.00 0.00 82 1020.5
20260506152520 56 0 0.0 0.0 0.00 0.00 0.00 82 1020.5
20260506152019 56 0 0.0 0.0 0.00 0.00 0.00 82 1020.3
20260506151543 56 0 0.0 0.0 0.00 0.00 0.00 82 1020.4
20260506151018 56 0 0.0 0.0 0.00 0.00 0.00 82 1020.4
20260506150517 56 0 0.0 0.0 0.00 0.00 0.00 83 1020.4
20260506150040 55 0 0.0 0.0 0.00 0.00 0.00 82 1020.3
20260506145517 55 0 0.0 0.0 0.00 0.00 0.00 82 1020.3
20260506145019 55 0 0.0 0.0 0.00 0.00 0.00 83 1020.3
20260506144554 55 0 0.0 0.0 0.00 0.00 0.00 83 1020.3
20260506144021 55 0 0.0 0.0 0.00 0.00 0.00 84 1020.2
20260506143518 55 0 0.0 0.0 0.00 0.00 0.00 84 1020.2
20260506143037 55 0 0.0 0.0 0.00 0.00 0.00 84 1020.2
20260506142519 55 0 0.0 0.0 0.00 0.00 0.00 84 1020.2
20260506142019 55 0 0.0 0.0 0.00 0.00 0.00 83 1020.1
20260506141543 55 0 0.0 0.0 0.00 0.00 0.00 84 1020.1
20260506141021 55 0 0.0 0.0 0.00 0.00 0.00 83 1020.0
20260506140520 54 0 0.0 0.0 0.00 0.00 0.00 84 1019.9
20260506140042 54 0 0.0 0.0 0.00 0.00 0.00 84 1019.9
20260506135518 54 0 0.0 0.0 0.00 0.00 0.00 84 1019.8
20260506135019 54 0 0.0 0.0 0.00 0.00 0.00 84 1019.8
20260506134541 54 0 0.0 0.0 0.00 0.00 0.00 84 1019.7
20260506134021 54 0 0.0 0.0 0.00 0.00 0.00 84 1019.7
20260506133520 54 0 0.0 0.0 0.00 0.00 0.00 84 1019.7
20260506133041 54 0 0.0 0.0 0.00 0.00 0.00 84 1019.7
20260506132519 54 0 0.0 0.0 0.00 0.00 0.00 84 1019.8
20260506132022 54 0 0.0 0.0 0.00 0.00 0.00 84 1019.5
20260506131551 54 0 0.0 0.0 0.00 0.00 0.00 84 1019.5
20260506131023 54 0 0.0 0.0 0.00 0.00 0.00 84 1019.5
20260506130520 54 0 0.0 0.0 0.00 0.00 0.00 84 1019.4
20260506130037 54 0 0.0 0.0 0.00 0.00 0.00 84 1019.5
20260506125519 54 0 0.0 0.0 0.00 0.00 0.00 85 1019.5
20260506125018 54 0 0.0 0.0 0.00 0.00 0.00 85 1019.4
20260506124537 54 0 0.0 0.0 0.00 0.00 0.00 85 1019.5
20260506124021 54 0 0.0 0.0 0.00 0.00 0.00 85 1019.4
20260506123519 54 0 0.0 0.0 0.00 0.00 0.00 84 1019.5
20260506123045 54 0 0.0 0.0 0.00 0.00 0.00 84 1019.3
20260506122518 54 0 0.0 0.0 0.00 0.00 0.00 84 1019.4
20260506122023 54 0 0.0 0.0 0.00 0.00 0.00 84 1019.4
20260506121541 54 0 0.0 0.0 0.00 0.00 0.00 84 1019.4
20260506121019 54 0 0.0 0.0 0.00 0.00 0.00 84 1019.3
20260506120522 54 0 0.0 0.0 0.00 0.00 0.00 84 1019.4
20260506120040 54 0 0.0 0.0 0.00 0.00 0.00 84 1019.3
20260506115519 54 0 0.0 0.0 0.00 0.00 0.00 84 1019.5
20260506115020 54 0 0.0 0.0 0.00 0.00 0.00 84 1019.3
20260506114543 54 0 0.0 0.0 0.00 0.00 0.00 84 1019.4
20260506114016 54 0 0.0 0.0 0.00 0.00 0.00 84 1019.4
20260506113521 54 0 0.0 0.0 0.00 0.00 0.00 84 1019.1
20260506113037 54 0 0.0 0.0 0.00 0.00 0.00 84 1019.2
20260506112519 54 0 0.0 0.0 0.00 0.00 0.00 84 1019.2
20260506112019 54 0 0.0 1.0 0.00 0.00 0.00 84 1019.1
20260506111535 54 0 0.0 1.0 0.00 0.00 0.00 84 1019.0
20260506111019 54 0 0.0 3.0 0.00 0.00 0.00 84 1018.9
20260506110519 53 0 0.0 3.0 0.00 0.00 0.00 84 1018.9
20260506110035 53 289 0.0 0.0 0.00 0.00 0.00 85 1018.9
20260506105524 54 0 0.0 0.0 0.00 0.00 0.00 85 1018.9
20260506105017 54 0 0.0 0.0 0.00 0.00 0.00 85 1018.9
20260506104544 54 0 0.0 1.0 0.00 0.00 0.00 85 1019.0
20260506104017 54 0 0.0 1.0 0.00 0.00 0.00 85 1018.9
20260506103521 54 0 0.0 1.0 0.00 0.00 0.00 85 1019.0
20260506103038 54 0 0.0 1.0 0.00 0.00 0.00 85 1018.9
20260506102517 54 0 0.0 2.0 0.00 0.00 0.00 85 1018.9
20260506102017 54 0 0.0 2.0 0.00 0.00 0.00 85 1018.9
20260506101537 54 319 0.0 0.0 0.00 0.00 0.00 85 1018.8
20260506101016 54 0 0.0 1.0 0.00 0.00 0.00 85 1018.8
20260506100519 54 0 0.0 2.0 0.00 0.00 0.00 85 1018.8
20260506100037 54 298 0.0 2.0 0.00 0.00 0.00 85 1018.7
20260506095516 54 283 0.0 2.0 0.00 0.01 0.00 85 1018.6
20260506095017 54 0 0.0 2.0 0.00 0.01 0.00 85 1018.8
20260506094536 54 0 0.0 1.0 0.00 0.01 0.00 85 1018.8
20260506094017 54 0 0.0 0.0 0.00 0.01 0.00 85 1019.0
20260506093520 54 0 0.0 0.0 0.00 0.01 0.00 85 1018.9
20260506093034 54 0 0.0 0.0 0.00 0.01 0.00 84 1018.9
20260506092520 54 0 0.0 0.0 0.00 0.01 0.00 84 1018.9
20260506092019 54 0 0.0 0.0 0.00 0.01 0.00 84 1018.7
20260506091541 54 0 0.0 1.0 0.00 0.01 0.00 84 1018.7
20260506091016 54 0 0.0 1.0 0.00 0.01 0.00 84 1018.7
20260506090516 54 0 0.0 0.0 0.00 0.01 0.00 84 1018.8
20260506090041 54 0 0.0 1.0 0.00 0.01 0.00 84 1018.7
20260506085520 54 0 0.0 1.0 0.00 0.04 0.00 84 1018.8
20260506085019 54 0 0.0 0.0 0.00 0.04 0.00 84 1018.7
20260506084541 54 0 0.0 0.0 0.00 0.04 0.00 84 1018.8
20260506084022 54 0 0.0 2.0 0.00 0.04 0.00 84 1018.8
20260506083520 54 0 0.0 2.0 0.00 0.04 0.00 84 1018.8
20260506083037 54 0 0.0 0.0 0.00 0.04 0.00 84 1018.9
20260506082518 54 0 0.0 0.0 0.00 0.04 0.00 84 1018.9
20260506082018 54 0 0.0 1.0 0.00 0.04 0.00 84 1018.9
20260506081544 54 0 0.0 1.0 0.00 0.04 0.00 84 1018.9
20260506081019 54 0 0.0 1.0 0.00 0.04 0.00 84 1018.9
20260506080518 54 0 0.0 1.0 0.00 0.04 0.00 84 1019.0
20260506073519 54 297 0.0 2.0 0.00 0.08 0.00 84 1018.7
20260506073037 54 0 0.0 1.0 0.00 0.08 0.00 84 1018.6
20260506072519 54 0 0.0 2.0 0.00 0.08 0.00 84 1018.7
20260506072019 54 0 0.0 2.0 0.00 0.08 0.00 84 1018.5
20260506071539 54 0 0.0 1.0 0.00 0.08 0.00 84 1018.6
20260506071018 54 0 0.0 2.0 0.00 0.08 0.00 84 1018.5
20260506070521 54 0 0.0 2.0 0.00 0.08 0.00 85 1018.5
20260506062019 54 0 0.0 1.0 0.00 0.09 0.08 85 1018.1
20260506061540 54 0 0.0 1.0 0.00 0.09 0.08 84 1018.2
20260506061019 54 0 0.0 0.0 0.00 0.09 0.08 84 1018.1
20260506060518 54 0 0.0 1.0 0.00 0.09 0.08 84 1018.1
20260506051018 55 0 0.0 2.0 0.00 0.12 0.08 85 1018.0
20260506050518 55 0 0.0 1.0 0.00 0.12 0.08 85 1017.9
20260506045018 55 307 0.0 3.0 0.00 0.13 0.08 84 1017.7
20260506044545 55 294 0.0 2.0 0.00 0.13 0.08 84 1017.8
20260506044017 55 280 0.0 1.0 0.00 0.13 0.08 85 1017.8
20260506043518 54 0 0.0 1.0 0.00 0.13 0.08 85 1017.7
20260506043037 54 0 0.0 1.0 0.00 0.13 0.08 85 1017.6
20260506042524 54 0 0.0 0.0 0.00 0.13 0.08 85 1017.6
20260506042019 54 0 0.0 2.0 0.00 0.13 0.08 85 1017.6
20260506041537 54 0 0.0 2.0 0.00 0.13 0.08 85 1017.4
20260506041018 55 0 0.0 3.0 0.00 0.13 0.08 85 1017.3
20260506040518 55 0 0.0 3.0 0.00 0.13 0.08 85 1017.2
20260506040044 55 282 0.0 2.0 0.00 0.13 0.08 84 1017.0
20260506035521 55 0 0.0 2.0 0.00 0.13 0.08 85 1017.1
20260506035018 55 0 0.0 3.0 0.00 0.13 0.08 84 1017.1
20260506034541 55 252 0.0 3.0 0.00 0.13 0.08 84 1016.9
20260506034018 55 268 0.0 3.0 0.00 0.13 0.08 84 1016.9
20260506033519 55 0 0.0 3.0 0.00 0.13 0.08 84 1016.8
20260506033042 55 267 0.0 3.0 0.00 0.13 0.08 84 1016.8
20260506032518 55 276 0.0 2.0 0.00 0.13 0.08 83 1016.7
20260506032019 55 0 0.0 3.0 0.00 0.13 0.08 84 1016.6
20260506031540 55 0 0.0 3.0 0.00 0.13 0.08 83 1016.5
20260506031018 55 259 0.0 4.0 0.00 0.13 0.08 83 1016.5
20260506030519 55 0 0.0 4.0 0.00 0.13 0.08 83 1016.4
20260506030055 55 271 0.0 4.0 0.00 0.13 0.08 83 1016.4
20260506025518 55 293 1.0 4.0 0.00 0.13 0.08 83 1016.3
20260506025022 55 0 0.0 4.0 0.00 0.13 0.08 84 1016.3
20260506024550 55 267 1.0 4.0 0.00 0.13 0.08 83 1016.4
20260506024018 55 0 1.0 4.0 0.00 0.13 0.08 83 1016.3
20260506023519 55 284 0.0 4.0 0.00 0.13 0.08 83 1016.3
20260506023035 55 296 1.0 4.0 0.00 0.13 0.08 83 1016.2
20260506022518 56 0 1.0 6.0 0.00 0.13 0.08 83 1016.1
20260506022018 56 274 1.0 6.0 0.00 0.13 0.08 82 1015.9
20260506021542 56 288 2.0 6.0 0.00 0.13 0.08 82 1015.8
20260506021018 56 0 1.0 6.0 0.00 0.13 0.08 83 1015.8
20260506020522 56 295 1.0 6.0 0.00 0.13 0.08 83 1015.9
20260506020040 56 283 2.0 6.0 0.00 0.13 0.08 82 1015.9
20260506015518 56 276 2.0 6.0 0.00 0.13 0.08 83 1015.7
20260506015018 56 0 1.0 5.0 0.00 0.13 0.08 83 1015.9
20260506014552 57 270 1.0 7.0 0.00 0.13 0.08 82 1015.8
20260506014017 56 0 1.0 7.0 0.00 0.13 0.08 82 1015.8
20260506013518 57 262 1.0 5.0 0.00 0.13 0.08 82 1015.8
20260506013037 57 0 0.0 6.0 0.00 0.13 0.08 82 1015.9
20260506012519 57 0 1.0 7.0 0.00 0.13 0.08 81 1015.9
20260506012018 57 300 1.0 7.0 0.00 0.13 0.08 80 1016.0
20260506011539 57 292 3.0 7.0 0.00 0.13 0.08 79 1015.7
20260506011022 57 282 3.0 7.0 0.00 0.13 0.08 79 1015.9
20260506010518 57 292 1.0 6.0 0.00 0.13 0.08 79 1015.8
20260506010050 57 252 2.0 6.0 0.00 0.13 0.08 80 1015.8
20260506005518 57 298 4.0 6.0 0.00 0.13 0.08 78 1015.7
20260506005018 58 271 1.0 6.0 0.00 0.13 0.08 77 1015.8
20260506004549 57 200 2.0 6.0 0.00 0.13 0.08 78 1015.8
20260506004021 58 271 2.0 6.0 0.00 0.13 0.08 77 1015.7
20260506003519 58 283 2.0 6.0 0.00 0.13 0.08 76 1015.5
20260506003042 58 288 2.0 6.0 0.00 0.13 0.08 79 1015.5
20260506002520 58 268 0.0 6.0 0.00 0.13 0.08 78 1015.5
20260506002020 58 276 2.0 6.0 0.00 0.13 0.08 78 1015.5
20260506001538 58 0 2.0 6.0 0.00 0.13 0.08 79 1015.5
20260506001018 57 259 2.0 6.0 0.00 0.13 0.08 79 1015.4
20260506000518 58 274 2.0 7.0 0.00 0.13 0.08 79 1015.6
20260506000038 57 285 3.0 7.0 0.00 0.13 0.08 79 1015.4
20260505235517 57 255 2.0 7.0 0.00 0.13 0.08 81 1015.4
20260505235018 57 231 1.0 7.0 0.00 0.13 0.08 80 1015.4
20260505234537 57 293 3.0 7.0 0.00 0.13 0.08 80 1015.5
20260505234018 58 250 1.0 7.0 0.00 0.13 0.08 80 1015.6
20260505233521 57 290 2.0 8.0 0.00 0.13 0.08 79 1015.6
20260505233044 58 278 2.0 8.0 0.00 0.13 0.08 80 1015.6
20260505232553 58 281 2.0 8.0 0.00 0.13 0.08 79 1015.6